Skip Navigation Links
NOAA logo - Click to go to the NOAA homepage
NOAA's National Weather Service
Alaska Aviation Weather Unit
  NWS logo - Click to go to the NWS homepage
Left Navbar Graphic     22 AKDT = 06 GMT

   
NOAA is celebrating 200 years of science, service, and stewardship. Visit the NOAA 200th celebration Web site to learn more.
USA.gov is the U.S. Government's official Web portal to all Federal, state and local government Web resources and services.
Facebook
NWS on Facebook

Important Change Regarding the AAWU Web Presence

 

Over the last several months, the AAWU has been working to navigate its webpages to a nationally supported server. Security, as well as other needs, have necessitated the change.  In the process, we have made an effort to enhance the functionality of our website, as well as some of our products. As of June 20, 2017, aawu.arh.noaa.gov will be discontinued. The new AAWU web address is weather.gov/aawu. It is now live and will run in-parallel with the old site until it is discontinued. Please send any feedback or questions regarding the new webpages to nws.ar.aawu.webauthors@noaa.gov.  Thank you for your patience during this time of transition.
AAWU Home :: Display TAF Add Bookmark
METAR PALU 280055Z AUTO 32003KT 10SM BKN041 04/01 A2997=

PALU 280116Z AUTO 32001KT 10SM FEW005 BKN026 03/01 A2997=

METAR PALU 280155Z AUTO 00000KT 10SM FEW006 BKN025 04/01 A2997=

METAR PALU 280255Z AUTO 07001KT 10SM FEW013 BKN021 BKN042 04/01
     A2997=

PALU 280316Z AUTO 07001KT 10SM FEW013 BKN030 04/01 A2997=

PALU 280336Z AUTO 00000KT 10SM -SHRA BKN031 04/01 A2997=

METAR PALU 280355Z AUTO 34001KT 10SM FEW028 FEW046 04/02 A2997=

METAR PALU 280455Z AUTO 00000KT 10SM FEW037 05/01 A2997=

METAR PALU 280555Z AUTO 07001KT 10SM FEW042 05/02 A2997=


NOAA's National Weather Service
Alaska Aviation Weather Unit
6930 Sand Lake Road
Anchorage, AK 99502-1845
Disclaimer
Credits
Glossary
Privacy Policy
About Us
Career Opportunities
Contact AAWU Internet Services Site last modified: April, 17th 2012